Whiteville, NC

4:51 PM EDT on July 23, 2017 (GMT -0400)
Columbus County Municipal

Weather History for KCPC - January, 2013

Change the Weather History Date:

Thursday, January 17, 2013

  Actual Average (KCRE) Record (KCRE)
Temperature  
Mean Temperature 57 °F -  
Max Temperature 76 °F 52 °F 75 °F (2013)
Min Temperature 38 °F 34 °F 12 °F (1994)
Degree Days  
Heating Degree Days 8    
Growing Degree Days 7 (Base 50)    
Moisture  
Dew Point 50 °F    
Average Humidity 84    
Maximum Humidity 99    
Minimum Humidity 48    
Precipitation  
Precipitation 0.03 in - - ()
Sea Level Pressure  
Sea Level Pressure 29.91 in    
Wind  
Wind Speed 4 mph (South)    
Max Wind Speed 20 mph    
Max Gust Speed 26 mph    
Visibility 8 miles    
Events Rain    
Averages and records for this station are not official NWS values.
T = Trace of Precipitation, MM = Missing Value Source: NWS Daily Summary

Daily Weather History Graph

Daily Weather History Graph

Search for Another Location

Airport or City:

Trip Planner

Search our weather history database for the weather conditions in past years. The results will help you decide how hot, cold, wet, or windy it might be!

Date:

Astronomy

Jan. 17, 2013 Rise Set
Actual Time 7:20 AM EST 5:30 PM EST
Civil Twilight 6:52 AM EST 5:57 PM EST
Nautical Twilight 6:22 AM EST 6:28 PM EST
Astronomical Twilight 5:52 AM EST 6:58 PM EST
Moon 10:45 AM EST (1/17) 11:59 PM EST (1/17)
Length of Visible Light 11h 04m
Length of Day
10h 10m
Waxing Crescent, 37% of the Moon is Illuminated
Jan 17
Waxing Crescent
Jan 18
First Quarter
Jan 26
Full
Feb 3
Last Quarter
Feb 10
New

Hourly Weather History & Observations

Time (EST) Temp. Windchill Dew Point Humidity Pressure Visibility Wind Dir Wind Speed Gust Speed Precip Events Conditions
12:15 AM 56.5 °F - 54.9 °F 94% 29.98 in 10.0 mi SSW 3.5 mph - N/A   Clear
12:35 AM 56.1 °F - 55.0 °F 96% 29.97 in 10.0 mi Calm Calm - N/A   Clear
12:55 AM 53.8 °F - 52.7 °F 96% 29.97 in 7.0 mi Calm Calm - N/A   Clear
1:15 AM 54.5 °F - 53.8 °F 97% 29.97 in 7.0 mi Calm Calm - N/A   Clear
1:35 AM 53.6 °F - 52.9 °F 97% 29.97 in 7.0 mi Calm Calm - N/A   Clear
1:55 AM 53.8 °F - 53.1 °F 97% 29.97 in 7.0 mi Calm Calm - N/A   Clear
2:15 AM 53.1 °F - 52.3 °F 97% 29.97 in 7.0 mi Calm Calm - N/A   Clear
2:35 AM 53.1 °F - 52.5 °F 98% 29.97 in 7.0 mi Calm Calm - N/A   Clear
3:15 AM 53.1 °F - 52.2 °F 97% 29.96 in 7.0 mi South 3.5 mph - N/A   Clear
3:35 AM 52.5 °F - 51.6 °F 97% 29.95 in 7.0 mi South 3.5 mph - N/A   Clear
3:55 AM 51.8 °F - 50.9 °F 97% 29.95 in 7.0 mi SSW 4.6 mph - N/A   Clear
4:35 AM 50.9 °F - 50.4 °F 98% 29.95 in 7.0 mi SSW 3.5 mph - N/A   Clear
4:55 AM 50.4 °F - 49.6 °F 97% 29.94 in 7.0 mi SSW 3.5 mph - N/A   Clear
5:15 AM 49.6 °F - 49.1 °F 98% 29.94 in 5.0 mi SSW 3.5 mph - N/A   Clear
5:35 AM 49.1 °F - 48.6 °F 98% 29.94 in 7.0 mi SSW 3.5 mph - N/A   Clear
5:55 AM 47.8 °F - 47.3 °F 98% 29.95 in 5.0 mi SSW 3.5 mph - N/A   Clear
6:15 AM 46.4 °F 45.2 °F 46.0 °F 99% 29.95 in 4.0 mi South 3.5 mph - N/A   Clear
6:35 AM 45.5 °F 43.2 °F 45.1 °F 99% 29.95 in 7.0 mi SSW 4.6 mph - N/A   Clear
6:55 AM 43.0 °F 41.3 °F 42.6 °F 99% 29.96 in 7.0 mi SSW 3.5 mph - N/A   Clear
7:15 AM 40.1 °F 38.0 °F 39.9 °F 99% 29.96 in 7.0 mi SSW 3.5 mph - N/A   Clear
7:35 AM 39.4 °F - 39.0 °F 99% 29.97 in 4.0 mi Calm Calm - N/A   Clear
7:55 AM 38.8 °F - 38.5 °F 99% 29.97 in 3.0 mi Calm Calm - N/A   Mist
8:15 AM 39.0 °F - 38.7 °F 99% 29.98 in 5.0 mi Calm Calm - N/A   Clear
8:35 AM 39.4 °F 37.2 °F 39.2 °F 99% 29.98 in 7.0 mi SSW 3.5 mph - N/A   Clear
8:55 AM 40.1 °F 36.9 °F 39.4 °F 97% 29.98 in 10.0 mi SSW 4.6 mph - N/A   Clear
9:15 AM 40.5 °F 38.4 °F 39.2 °F 95% 29.98 in 10.0 mi SSW 3.5 mph - N/A   Scattered Clouds
9:35 AM 41.2 °F 39.2 °F 39.2 °F 93% 29.98 in 10.0 mi South 3.5 mph - N/A   Scattered Clouds
9:55 AM 42.6 °F 39.9 °F 39.4 °F 88% 29.98 in 10.0 mi South 4.6 mph - N/A   Clear
10:15 AM 43.7 °F 41.1 °F 39.2 °F 84% 29.97 in 10.0 mi SSW 4.6 mph - N/A   Scattered Clouds
10:35 AM 45.5 °F 42.5 °F 39.2 °F 79% 29.96 in 10.0 mi South 5.8 mph - N/A   Mostly Cloudy
10:55 AM 54.3 °F - 46.9 °F 76% 29.95 in 10.0 mi South 4.6 mph - N/A   Scattered Clouds
11:15 AM 62.2 °F - 53.6 °F 73% 29.93 in 7.0 mi SSE 6.9 mph - N/A   Clear
11:35 AM 63.3 °F - 52.7 °F 68% 29.92 in 10.0 mi South 5.8 mph - N/A   Clear
11:55 AM 66.6 °F - 53.1 °F 62% 29.90 in 10.0 mi SSW 3.5 mph - N/A   Clear
12:15 PM 69.6 °F - 53.8 °F 57% 29.88 in 10.0 mi South 8.1 mph - N/A   Scattered Clouds
12:35 PM 71.8 °F - 54.3 °F 54% 29.87 in 10.0 mi South 8.1 mph - N/A   Scattered Clouds
12:55 PM 73.9 °F - 54.9 °F 51% 29.85 in 10.0 mi South 10.4 mph - N/A   Scattered Clouds
1:15 PM 74.3 °F - 55.2 °F 51% 29.84 in 10.0 mi SE 8.1 mph - N/A   Scattered Clouds
1:35 PM 75.2 °F - 55.0 °F 49% 29.82 in 10.0 mi SSE 11.5 mph - N/A   Scattered Clouds
1:55 PM 76.1 °F - 55.2 °F 48% 29.81 in 10.0 mi South 16.1 mph - N/A   Scattered Clouds
2:15 PM 76.5 °F - 55.8 °F 49% 29.81 in 10.0 mi SSE 12.7 mph 18.4 mph N/A   Scattered Clouds
2:35 PM 75.7 °F - 57.0 °F 52% 29.80 in 10.0 mi SSE 19.6 mph 26.5 mph N/A   Scattered Clouds
2:55 PM 75.4 °F - 58.8 °F 56% 29.80 in 10.0 mi SSE 10.4 mph 20.7 mph N/A   Scattered Clouds
3:15 PM 74.3 °F - 60.6 °F 62% 29.79 in 10.0 mi SSE 10.4 mph 19.6 mph N/A   Mostly Cloudy
3:35 PM 73.4 °F - 61.5 °F 66% 29.78 in 10.0 mi SSE 9.2 mph 24.2 mph N/A   Scattered Clouds
3:55 PM 73.0 °F - 62.2 °F 69% 29.76 in 10.0 mi South 11.5 mph 21.9 mph N/A   Scattered Clouds
4:15 PM 72.1 °F - 62.6 °F 72% 29.76 in 10.0 mi South 12.7 mph 23.0 mph N/A   Scattered Clouds
4:35 PM 71.8 °F - 63.5 °F 75% 29.77 in 10.0 mi South 11.5 mph 18.4 mph N/A   Scattered Clouds
4:55 PM 71.6 °F - 61.3 °F 70% 29.77 in 10.0 mi South 18.4 mph 25.3 mph N/A   Scattered Clouds
5:55 PM 70.0 °F - 61.7 °F 75% 29.75 in 10.0 mi SSE 10.4 mph 19.6 mph N/A   Clear
6:35 PM 68.0 °F - 63.7 °F 86% 29.73 in 7.0 mi SE 5.8 mph - 0.01 in Rain Rain
8:55 PM 50.4 °F - 48.0 °F 92% 29.87 in 10.0 mi SW 8.1 mph 17.3 mph 0.01 in   Overcast
9:15 PM 49.1 °F - 47.7 °F 95% 29.88 in 3.0 mi SW 5.8 mph - N/A   Heavy Drizzle
9:55 PM 44.1 °F 40.1 °F 42.6 °F 95% 29.91 in 5.0 mi North 6.9 mph 20.7 mph 0.01 in Rain Rain
10:15 PM 42.1 °F 36.1 °F 40.8 °F 95% 29.95 in 7.0 mi North 10.4 mph 23.0 mph N/A   Light Drizzle
10:35 PM 41.4 °F 36.2 °F 39.7 °F 94% 29.96 in 7.0 mi NNE 8.1 mph 20.7 mph N/A   Drizzle
10:55 PM 41.0 °F 37.1 °F 39.2 °F 93% 29.98 in 10.0 mi North 5.8 mph - N/A   Mostly Cloudy